Location: Miles
(41.4492°N, 81.6087°W)
Time: 08:49:05
(UTC+00:00)

Transit 2A - Pass Details

Date: 13 September 2024
Orbit: 590 x 960 km, 66.7° (Epoch: 09 October)

Event Time Altitude Azimuth Distance (km) Brightness Sun altitude
Rises 07:41:25 0° 337° (NNW) 3,649 9.8 -35.0°
Reaches altitude 10° 07:44:46 10° 353° (N) 2,684 9.2 -34.5°
Maximum altitude 07:49:20 21° 40° (NE) 1,983 8.7 -33.9°
Drops below altitude 10° 07:53:44 10° 87° (E) 2,567 9.2 -33.3°
Sets 07:56:50 0° 104° (ESE) 3,444 9.8 -32.9°
